{"data":{"norad_id":59349,"epoch":"2026-09-21T09:31:22.571328Z","epoch_age_seconds":84792,"freshness":"FRESH","line1":"1 59349U 24060B   26264.39678902  .00000424  00000+0  24940-4 0  9998","line2":"2 59349  43.0010 234.6130 0001007 261.8923  98.1815 15.27578738140042","mean_motion":15.27578738,"eccentricity":0.0001007,"inclination_deg":43.001,"raan_deg":234.613,"arg_perigee_deg":261.8923,"mean_anomaly_deg":98.1815,"bstar":2.494e-5,"rev_number":14004,"period_min":94.26682659156,"perigee_km":482.36195310385,"apogee_km":483.74379674466,"semimajor_km":6861.1898749243,"source":"CELESTRAK","updated_at":"2026-09-22T09:00:48.902933Z"}}